This demonstration page uses our WeatherBlox Daily Observations layout. Learn more.

Left ArrowRight Arrow

39.51506, -84.39828

Hourly Observations for February 2, 2019

Temp ( °F °C ) Dew Point ( °F °C ) Humidity (%) Winds ( mph kmh ) Pressure ( in mb ) Visibility ( mi km ) Precip ( " mm )
12:15 am 00:15 Clear with Mist and Fog 11 -11.5 9 -12.7 91 91 Calm 30.43 1030 7 11 0.00 0.00
12:30 am 00:30 Clear with Mist and Fog 12 -11.3 10 -12.4 92 92 Calm 30.42 1030 4 6 0.00 0.00
12:55 am 00:55 Clear 10 -12 8 -13.3 90 90 Calm 30.41 1030 7 11 0.00 0.00
1:15 am 01:15 Clear with Mist and Fog 10 -12.5 7 -13.9 89 89 Calm 30.41 1030 5 8 0.00 0.00
1:35 am 01:35 Clear with Mist and Fog 9 -12.6 7 -14 89 89 Calm 30.40 1030 7 11 0.00 0.00
1:55 am 01:55 Partly Cloudy with Mist and Fog 8 -13.5 5 -14.9 89 89 Calm 30.40 1030 5 8 0.00 0.00
2:15 am 02:15 Cloudy with Mist and Fog 8 -13.3 6 -14.7 89 89 Calm 30.39 1029 5 8 0.00 0.00
2:35 am 02:35 Cloudy 12 -11.3 9 -12.7 90 90 Calm 30.39 1029 7 11 0.00 0.00
2:55 am 02:55 Cloudy 13 -10.4 11 -11.7 90 90 Calm 30.39 1029 7 11 0.00 0.00
3:15 am 03:15 Cloudy with Mist and Fog 15 -9.7 13 -10.8 92 92 Calm 30.38 1029 1 2 0.00 0.00
3:35 am 03:35 Cloudy with Mist and Fog 15 -9.3 13 -10.3 93 93 Calm 30.38 1029 3 5 0.00 0.00
3:55 am 03:55 Cloudy with Mist and Fog 15 -9.3 13 -10.4 92 92 Calm 30.37 1029 3 5 0.00 0.00
4:15 am 04:15 Cloudy with Mist and Fog 16 -8.7 15 -9.7 93 93 Calm 30.37 1028 2 3 0.00 0.00
4:35 am 04:35 Cloudy with Mist and Fog 17 -8.3 15 -9.3 93 93 Calm 30.36 1028 4 6 0.00 0.00
4:55 am 04:55 Cloudy with Mist and Fog 18 -7.9 16 -8.9 93 93 Calm 30.36 1028 3 5 0.00 0.00
5:15 am 05:15 Cloudy with Light Snow 18 -7.8 16 -8.7 93 93 Calm 30.35 1028 2 2 0.00 0.00
5:35 am 05:35 Cloudy with Light Snow 19 -7.5 17 -8.4 93 93 Calm 30.35 1028 1 1 0.00 0.00
5:55 am 05:55 Cloudy with Light Snow 19 -7.2 17 -8.1 93 93 Calm 30.35 1028 1 1 0.00 0.00
6:15 am 06:15 Cloudy with Light Snow 20 -6.9 18 -7.8 93 93 Calm 30.33 1027 1 2 0.00 0.00
6:35 am 06:35 Cloudy with Mist and Fog 21 -6.2 19 -7.1 93 93 Calm 30.34 1028 2 3 0.00 0.00
6:55 am 06:55 Cloudy with Mist and Fog 21 -5.9 20 -6.7 94 94 Calm 30.33 1027 3 4 0.00 0.00
7:15 am 07:15 Cloudy with Freezing Fog 22 -5.8 20 -6.6 94 94 Calm 30.34 1027 1 1 0.00 0.00
7:35 am 07:35 Cloudy with Freezing Fog 22 -5.5 21 -6.2 95 95 Calm 30.33 1027 5 8 0.00 0.00
7:55 am 07:55 Cloudy with Freezing Fog 22 -5.3 21 -6 95 95 Calm 30.32 1027 5 8 0.00 0.00
8:15 am 08:15 Cloudy with Freezing Fog 26 -3.5 25 -3.9 97 97 SSW 5 7 30.32 1027 5 8 0.00 0.00
8:35 am 08:35 Cloudy with Light Snow 26 -3.3 25 -3.8 96 96 SSW 3 6 30.31 1027 0 0 0.00 0.00
8:55 am 08:55 Cloudy with Light Snow 27 -3 26 -3.4 97 97 SSW 6 9 30.31 1027 0 0 0.00 0.00
9:15 am 09:15 Cloudy with Freezing Fog 27 -2.8 26 -3.2 97 97 SSW 6 9 30.31 1027 0 0 0.00 0.00
9:35 am 09:35 Cloudy with Freezing Fog 27 -2.6 27 -2.9 98 98 S 6 9 30.31 1026 0 0 0.00 0.00
9:55 am 09:55 Cloudy with Freezing Fog 28 -2.3 27 -2.7 97 97 SSW 7 11 30.32 1027 0 0 0.00 0.00
10:15 am 10:15 Cloudy with Freezing Fog 28 -2 28 -2.4 97 97 S 6 9 30.32 1027 1 1 0.00 0.00
10:35 am 10:35 Cloudy with Mist and Fog 29 -1.8 28 -2.2 97 97 S 3 6 30.31 1026 2 3 0.00 0.00
10:55 am 10:55 Cloudy with Mist and Fog 29 -1.7 28 -2 98 98 S 7 11 30.31 1026 1 2 0.00 0.00
11:15 am 11:15 Cloudy with Mist and Fog 30 -1.3 29 -1.6 98 98 S 6 9 30.31 1026 1 2 0.00 0.00
11:35 am 11:35 Cloudy with Mist and Fog 30 -1.1 30 -1.3 99 99 S 6 9 30.30 1026 2 2 0.00 0.00
11:55 am 11:55 Cloudy with Mist and Fog 30 -0.9 30 -1.1 99 99 SSW 6 9 30.30 1026 2 3 0.00 0.00
12:15 pm 12:15 Cloudy with Mist and Fog 31 -0.6 31 -0.8 99 99 S 8 13 30.29 1026 2 3 0.00 0.00
12:35 pm 12:35 Cloudy with Mist and Fog 31 -0.4 31 -0.6 99 99 S 7 11 30.28 1025 3 4 0.00 0.00
12:55 pm 12:55 Cloudy with Mist and Fog 32 -0.2 31 -0.4 99 99 SSW 7 11 30.27 1025 3 5 0.00 0.00
1:15 pm 13:15 Cloudy with Mist and Fog 32 0.2 32 -0.1 98 98 S 6 9 30.25 1025 3 5 0.00 0.00
1:35 pm 13:35 Cloudy with Mist and Fog 33 0.6 32 0.2 97 97 S 5 7 30.23 1024 4 6 0.00 0.00
1:55 pm 13:55 Mostly Cloudy with Mist and Fog 34 1.1 33 0.4 95 95 SSW 5 7 30.23 1024 4 6 0.00 0.00
2:15 pm 14:15 Partly Cloudy with Mist and Fog 35 1.7 33 0.6 93 93 Calm 30.22 1023 4 6 0.00 0.00
2:35 pm 14:35 Mostly Cloudy with Mist and Fog 36 2.3 34 1 91 91 SW 3 6 30.22 1023 5 8 0.00 0.00
2:55 pm 14:55 Cloudy with Mist and Fog 37 2.7 34 1.1 89 89 SSW 3 6 30.21 1023 7 11 0.00 0.00
3:15 pm 15:15 Cloudy with Mist and Fog 38 3.3 34 1.2 86 86 Calm 30.20 1023 7 11 0.00 0.00
3:35 pm 15:35 Cloudy 38 3.6 33 0.7 82 82 SW 5 7 30.20 1023 7 11 0.00 0.00
3:55 pm 15:55 Cloudy 39 3.8 33 0.8 81 81 S 3 6 30.19 1022 7 11 0.00 0.00
4:15 pm 16:15 Cloudy 39 4.1 34 1.1 81 81 SSW 5 7 30.18 1022 7 11 0.00 0.00
4:35 pm 16:35 Cloudy 40 4.2 34 1.1 80 80 Calm 30.18 1022 7 11 0.00 0.00
4:55 pm 16:55 Cloudy 39 3.9 34 1 82 82 SW 3 6 30.17 1022 7 11 0.00 0.00
5:15 pm 17:15 Partly Cloudy 39 4.1 34 1.1 81 81 Calm 30.16 1021 7 11 0.00 0.00
5:35 pm 17:35 Sunny 39 3.7 34 0.9 82 82 Calm 30.17 1022 7 11 0.00 0.00
5:55 pm 17:55 Sunny 38 3.2 33 0.8 84 84 Calm 30.17 1022 7 11 0.00 0.00
6:15 pm 18:15 Clear with Mist and Fog 35 1.6 32 0.2 91 91 Calm 30.17 1022 5 8 0.00 0.00
6:35 pm 18:35 Clear 34 1 32 -0.2 92 92 Calm 30.17 1022 7 11 0.00 0.00
7:15 pm 19:15 Clear with Mist and Fog 31 -0.4 30 -1.1 95 95 Calm 30.18 1022 4 6 0.00 0.00
7:35 pm 19:35 Clear with Mist and Fog 31 -0.5 30 -1.1 96 96 Calm 30.18 1022 4 6 0.00 0.00
7:55 pm 19:55 Clear with Mist and Fog 30 -0.9 29 -1.5 96 96 Calm 30.17 1022 4 6 0.00 0.00
8:15 pm 20:15 Clear with Mist and Fog 29 -1.5 29 -1.9 97 97 Calm 30.17 1022 4 6 0.00 0.00
8:35 pm 20:35 Clear with Mist and Fog 29 -1.5 29 -1.9 97 97 Calm 30.17 1022 3 4 0.00 0.00
8:55 pm 20:55 Clear with Mist and Fog 29 -1.5 29 -1.8 98 98 Calm 30.17 1022 3 4 0.00 0.00
9:15 pm 21:15 Clear with Mist and Fog 29 -1.7 28 -2.1 97 97 Calm 30.16 1021 3 4 0.00 0.00
9:35 pm 21:35 Clear with Mist and Fog 29 -1.7 28 -2.1 97 97 Calm 30.16 1021 4 6 0.00 0.00
9:55 pm 21:55 Clear with Mist and Fog 29 -1.9 28 -2.3 97 97 Calm 30.16 1021 4 6 0.00 0.00
10:15 pm 22:15 Clear with Mist and Fog 29 -1.9 28 -2.3 97 97 Calm 30.16 1021 3 5 0.00 0.00
10:35 pm 22:35 Clear with Mist and Fog 27 -2.6 27 -3 97 97 Calm 30.16 1021 3 5 0.00 0.00
10:55 pm 22:55 Clear with Mist and Fog 29 -1.7 28 -2.1 97 97 Calm 30.15 1021 3 5 0.00 0.00
11:15 pm 23:15 Clear with Mist and Fog 27 -2.6 27 -3 97 97 Calm 30.15 1021 4 6 0.00 0.00
11:35 pm 23:35 Clear with Mist and Fog 28 -2.3 27 -2.8 96 96 Calm 30.15 1021 4 6 0.00 0.00
11:55 pm 23:55 Clear with Mist and Fog 28 -2.5 27 -3 96 96 Calm 30.14 1021 3 5 0.00 0.00

Powered by AerisWeather